LPE2028 SPJC-SPZO

Flight info

Callsign LPE2028
Flight time 0h 59m
Altitude 35000
Route PAKOL DCT POVLO DCT DARKI
Aircraft A320/M-SDE3FGHIRWY/LB1

Departure

Time 2026-04-23 20:12
Airport Jorge Chávez International Airport (SPJC)

Arrival

Time 2026-04-23 21:11
Airport Alejandro Velasco Astete International Airport (SPZO)
Time Latitude Longitude Altitude Speed Heading
2026-04-23 19:56 -12.02868 -77.11421 81 ft 0 kts 244°
2026-04-23 19:58 -12.02862 -77.11409 81 ft 4 kts 244°
2026-04-23 19:58 -12.02852 -77.11384 85 ft 4 kts 263°
2026-04-23 19:58 -12.02856 -77.11361 83 ft 4 kts 320°
2026-04-23 19:59 -12.02865 -77.11355 85 ft 1 kts 334°
2026-04-23 20:03 -12.02863 -77.11356 82 ft 2 kts 334°
2026-04-23 20:03 -12.02841 -77.11367 85 ft 5 kts 334°
2026-04-23 20:03 -12.02798 -77.11388 87 ft 8 kts 334°
2026-04-23 20:04 -12.02743 -77.11414 86 ft 9 kts 335°
2026-04-23 20:04 -12.02686 -77.11441 87 ft 9 kts 335°
2026-04-23 20:04 -12.02624 -77.11473 83 ft 10 kts 333°
2026-04-23 20:04 -12.02558 -77.11506 84 ft 11 kts 334°
2026-04-23 20:05 -12.02484 -77.11542 84 ft 13 kts 335°
2026-04-23 20:05 -12.02393 -77.11586 82 ft 16 kts 334°
2026-04-23 20:05 -12.02280 -77.11643 69 ft 21 kts 335°
2026-04-23 20:05 -12.02133 -77.11714 68 ft 26 kts 334°
2026-04-23 20:06 -12.01975 -77.11791 60 ft 17 kts 331°
2026-04-23 20:06 -12.01867 -77.11844 65 ft 12 kts 350°
2026-04-23 20:06 -12.01805 -77.11805 62 ft 10 kts 15°
2026-04-23 20:06 -12.01736 -77.11831 65 ft 11 kts 333°
2026-04-23 20:07 -12.01661 -77.11870 60 ft 13 kts 333°
2026-04-23 20:07 -12.01578 -77.11892 63 ft 10 kts 21°
2026-04-23 20:07 -12.01559 -77.11869 63 ft 0 kts 66°
2026-04-23 20:08 -12.01558 -77.11867 66 ft 2 kts 66°
2026-04-23 20:08 -12.01552 -77.11851 60 ft 2 kts 66°
2026-04-23 20:08 -12.01548 -77.11843 59 ft 1 kts 66°
2026-04-23 20:09 -12.01530 -77.11806 61 ft 7 kts 61°
2026-04-23 20:09 -12.01489 -77.11782 66 ft 12 kts 355°
2026-04-23 20:09 -12.01390 -77.11828 59 ft 16 kts 334°
2026-04-23 20:09 -12.01287 -77.11877 55 ft 17 kts 334°
2026-04-23 20:10 -12.01212 -77.11915 56 ft 18 kts 334°
2026-04-23 20:10 -12.01054 -77.11988 53 ft 25 kts 340°
2026-04-23 20:10 -12.00866 -77.12069 52 ft 28 kts 336°
2026-04-23 20:10 -12.00828 -77.12111 52 ft 6 kts 156°
2026-04-23 20:11 -12.00946 -77.12048 52 ft 48 kts 155°
2026-04-23 20:11 -12.01450 -77.11796 64 ft 111 kts 154°
2026-04-23 20:11 -12.02302 -77.11379 94 ft 157 kts 155°
2026-04-23 20:11 -12.03309 -77.10889 580 ft 162 kts 158°
2026-04-23 20:12 -12.04325 -77.10396 1214 ft 162 kts 157°
2026-04-23 20:12 -12.05387 -77.09873 1694 ft 179 kts 154°
2026-04-23 20:12 -12.06577 -77.09284 1982 ft 201 kts 154°
2026-04-23 20:12 -12.07914 -77.08620 2319 ft 226 kts 155°
2026-04-23 20:13 -12.09410 -77.07879 2775 ft 250 kts 154°
2026-04-23 20:13 -12.10999 -77.07091 3482 ft 260 kts 153°
2026-04-23 20:13 -12.12630 -77.06283 4401 ft 262 kts 154°
2026-04-23 20:13 -12.14279 -77.05466 5256 ft 266 kts 154°
2026-04-23 20:14 -12.15977 -77.04628 5802 ft 275 kts 154°
2026-04-23 20:14 -12.17722 -77.03769 6446 ft 280 kts 154°
2026-04-23 20:14 -12.19493 -77.02895 7201 ft 285 kts 154°
2026-04-23 20:14 -12.21292 -77.02004 7961 ft 290 kts 154°
2026-04-23 20:15 -12.23083 -77.01000 8646 ft 297 kts 143°
2026-04-23 20:15 -12.24586 -76.99533 8969 ft 301 kts 124°
2026-04-23 20:15 -12.25588 -76.97687 9756 ft 302 kts 114°
2026-04-23 20:15 -12.26509 -76.95734 10303 ft 313 kts 114°
2026-04-23 20:16 -12.27508 -76.93657 10505 ft 337 kts 115°
2026-04-23 20:16 -12.28567 -76.91475 11014 ft 346 kts 115°
2026-04-23 20:16 -12.29647 -76.89261 11687 ft 349 kts 116°
2026-04-23 20:16 -12.30734 -76.87027 12346 ft 353 kts 116°
2026-04-23 20:17 -12.31829 -76.84767 13028 ft 356 kts 116°
2026-04-23 20:17 -12.32932 -76.82486 13685 ft 359 kts 116°
2026-04-23 20:17 -12.34042 -76.80183 14267 ft 362 kts 116°
2026-04-23 20:17 -12.35157 -76.77866 14875 ft 364 kts 116°
2026-04-23 20:18 -12.36265 -76.75564 15437 ft 367 kts 116°
2026-04-23 20:18 -12.37400 -76.73214 16003 ft 369 kts 116°
2026-04-23 20:18 -12.38540 -76.70854 16590 ft 372 kts 116°
2026-04-23 20:18 -12.39688 -76.68472 17164 ft 374 kts 116°
2026-04-23 20:19 -12.40838 -76.66079 17721 ft 376 kts 115°
2026-04-23 20:19 -12.41997 -76.63667 18317 ft 378 kts 115°
2026-04-23 20:19 -12.43164 -76.61240 18784 ft 381 kts 115°
2026-04-23 20:19 -12.44342 -76.58801 19218 ft 384 kts 115°
2026-04-23 20:20 -12.45532 -76.56343 19673 ft 387 kts 115°
2026-04-23 20:20 -12.46732 -76.53871 20142 ft 389 kts 115°
2026-04-23 20:20 -12.47940 -76.51387 20579 ft 391 kts 115°
2026-04-23 20:20 -12.49155 -76.48881 21035 ft 395 kts 115°
2026-04-23 20:21 -12.50379 -76.46356 21471 ft 397 kts 115°
2026-04-23 20:21 -12.51593 -76.43848 21892 ft 400 kts 115°
2026-04-23 20:21 -12.52828 -76.41298 22302 ft 402 kts 115°
2026-04-23 20:21 -12.54074 -76.38725 22700 ft 405 kts 115°
2026-04-23 20:22 -12.55324 -76.36139 23115 ft 407 kts 115°
2026-04-23 20:22 -12.56588 -76.33529 23544 ft 410 kts 115°
2026-04-23 20:22 -12.57854 -76.30910 23900 ft 412 kts 115°
2026-04-23 20:22 -12.59127 -76.28269 24263 ft 414 kts 115°
2026-04-23 20:23 -12.60399 -76.25627 24616 ft 415 kts 115°
2026-04-23 20:23 -12.61681 -76.22970 24951 ft 416 kts 115°
2026-04-23 20:23 -12.62964 -76.20306 25346 ft 418 kts 115°
2026-04-23 20:23 -12.64237 -76.17669 25690 ft 419 kts 115°
2026-04-23 20:24 -12.65531 -76.14989 26039 ft 421 kts 115°
2026-04-23 20:24 -12.66832 -76.12298 26394 ft 422 kts 115°
2026-04-23 20:24 -12.68135 -76.09601 26747 ft 423 kts 115°
2026-04-23 20:24 -12.69442 -76.06891 27092 ft 425 kts 115°
2026-04-23 20:25 -12.70751 -76.04170 27424 ft 426 kts 115°
2026-04-23 20:25 -12.72064 -76.01444 27752 ft 428 kts 115°
2026-04-23 20:25 -12.73385 -75.98702 28078 ft 430 kts 115°
2026-04-23 20:25 -12.74544 -75.95931 28397 ft 431 kts 108°
2026-04-23 20:26 -12.75321 -75.92961 28715 ft 432 kts 103°
2026-04-23 20:26 -12.76016 -75.89965 29023 ft 434 kts 103°
2026-04-23 20:26 -12.76720 -75.86942 29296 ft 436 kts 103°
2026-04-23 20:26 -12.77431 -75.83913 29601 ft 438 kts 103°
2026-04-23 20:27 -12.78148 -75.80871 29899 ft 440 kts 103°
2026-04-23 20:27 -12.78865 -75.77820 30170 ft 442 kts 103°
2026-04-23 20:27 -12.79557 -75.74869 30338 ft 446 kts 103°
2026-04-23 20:27 -12.80282 -75.71771 30544 ft 448 kts 103°
2026-04-23 20:28 -12.81010 -75.68657 30770 ft 450 kts 102°
2026-04-23 20:28 -12.81730 -75.65572 30999 ft 452 kts 102°
2026-04-23 20:28 -12.82462 -75.62441 31207 ft 453 kts 102°
2026-04-23 20:28 -12.83201 -75.59294 31445 ft 455 kts 102°
2026-04-23 20:29 -12.83939 -75.56143 31736 ft 454 kts 102°
2026-04-23 20:29 -12.84671 -75.52997 32061 ft 453 kts 102°
2026-04-23 20:29 -12.85403 -75.49854 32387 ft 453 kts 102°
2026-04-23 20:29 -12.86134 -75.46717 32695 ft 452 kts 102°
2026-04-23 20:30 -12.86862 -75.43584 33009 ft 451 kts 101°
2026-04-23 20:30 -12.88314 -75.37342 33649 ft 450 kts 101°
2026-04-23 20:30 -12.89040 -75.34223 33989 ft 449 kts 102°
2026-04-23 20:31 -12.89751 -75.31160 34262 ft 448 kts 101°
2026-04-23 20:31 -12.90472 -75.28058 34551 ft 447 kts 101°
2026-04-23 20:31 -12.91193 -75.24959 34826 ft 446 kts 101°
2026-04-23 20:31 -12.91913 -75.21867 35040 ft 447 kts 101°
2026-04-23 20:32 -12.93337 -75.15742 35103 ft 437 kts 101°
2026-04-23 20:32 -12.94731 -75.09700 35094 ft 435 kts 101°
2026-04-23 20:33 -12.96121 -75.03651 35096 ft 436 kts 101°
2026-04-23 20:33 -12.97513 -74.97639 35108 ft 437 kts 101°
2026-04-23 20:34 -12.98910 -74.91578 35097 ft 437 kts 101°
2026-04-23 20:34 -13.00306 -74.85516 35100 ft 437 kts 101°
2026-04-23 20:35 -13.01703 -74.79447 35102 ft 437 kts 101°
2026-04-23 20:35 -13.03100 -74.73374 35086 ft 437 kts 101°
2026-04-23 20:36 -13.04494 -74.67342 35080 ft 438 kts 101°
2026-04-23 20:36 -13.05887 -74.61258 35058 ft 438 kts 101°
2026-04-23 20:37 -13.07276 -74.55173 35080 ft 438 kts 101°
2026-04-23 20:37 -13.08679 -74.49080 35124 ft 438 kts 101°
2026-04-23 20:38 -13.10064 -74.43035 35190 ft 438 kts 101°
2026-04-23 20:38 -13.11456 -74.36951 35252 ft 439 kts 101°
2026-04-23 20:39 -13.12849 -74.30860 35331 ft 438 kts 101°
2026-04-23 20:39 -13.14235 -74.24782 35349 ft 437 kts 101°
2026-04-23 20:40 -13.15606 -74.18721 35348 ft 436 kts 101°
2026-04-23 20:40 -13.16975 -74.12701 35349 ft 436 kts 101°
2026-04-23 20:41 -13.18354 -74.06643 35297 ft 436 kts 101°
2026-04-23 20:41 -13.19041 -74.03619 35047 ft 435 kts 101°
2026-04-23 20:41 -13.19729 -74.00591 35047 ft 435 kts 101°
2026-04-23 20:42 -13.21099 -73.94538 35041 ft 436 kts 101°
2026-04-23 20:42 -13.22459 -73.88513 35060 ft 436 kts 101°
2026-04-23 20:43 -13.23831 -73.82453 35059 ft 436 kts 101°
2026-04-23 20:43 -13.25205 -73.76395 34889 ft 434 kts 101°
2026-04-23 20:44 -13.25884 -73.73391 34654 ft 430 kts 101°
2026-04-23 20:44 -13.26556 -73.70408 34422 ft 428 kts 101°
2026-04-23 20:44 -13.27224 -73.67436 34197 ft 426 kts 101°
2026-04-23 20:44 -13.27888 -73.64479 33943 ft 424 kts 101°
2026-04-23 20:45 -13.28541 -73.61574 33460 ft 420 kts 101°
2026-04-23 20:45 -13.29198 -73.58660 32957 ft 417 kts 101°
2026-04-23 20:45 -13.29850 -73.55775 32454 ft 413 kts 102°
2026-04-23 20:45 -13.30495 -73.52903 31960 ft 411 kts 102°
2026-04-23 20:46 -13.31135 -73.50056 31487 ft 408 kts 102°
2026-04-23 20:46 -13.31763 -73.47260 31017 ft 405 kts 103°
2026-04-23 20:46 -13.32395 -73.44449 30544 ft 403 kts 103°
2026-04-23 20:46 -13.33020 -73.41658 30074 ft 400 kts 103°
2026-04-23 20:47 -13.33640 -73.38880 29579 ft 397 kts 103°
2026-04-23 20:47 -13.34252 -73.36136 29143 ft 392 kts 103°
2026-04-23 20:47 -13.34859 -73.33418 28708 ft 388 kts 103°
2026-04-23 20:47 -13.35460 -73.30730 28283 ft 384 kts 103°
2026-04-23 20:48 -13.36055 -73.28068 27870 ft 381 kts 103°
2026-04-23 20:48 -13.36646 -73.25425 27448 ft 377 kts 103°
2026-04-23 20:48 -13.37222 -73.22851 27033 ft 374 kts 103°
2026-04-23 20:48 -13.37800 -73.20264 26593 ft 371 kts 103°
2026-04-23 20:49 -13.38375 -73.17691 26175 ft 369 kts 102°
2026-04-23 20:49 -13.38947 -73.15129 25732 ft 367 kts 102°
2026-04-23 20:49 -13.39514 -73.12578 25295 ft 366 kts 102°
2026-04-23 20:49 -13.40080 -73.10039 24844 ft 364 kts 102°
2026-04-23 20:50 -13.40644 -73.07509 24403 ft 363 kts 102°
2026-04-23 20:50 -13.41209 -73.04972 23946 ft 363 kts 102°
2026-04-23 20:50 -13.41772 -73.02442 23451 ft 363 kts 102°
2026-04-23 20:50 -13.42333 -72.99920 22959 ft 362 kts 102°
2026-04-23 20:51 -13.42883 -72.97442 22512 ft 359 kts 102°
2026-04-23 20:51 -13.43436 -72.94955 22080 ft 356 kts 102°
2026-04-23 20:51 -13.43982 -72.92487 21636 ft 354 kts 102°
2026-04-23 20:51 -13.44526 -72.90024 21203 ft 352 kts 102°
2026-04-23 20:52 -13.44994 -72.87596 21056 ft 342 kts 95°
2026-04-23 20:52 -13.45013 -72.85200 20920 ft 330 kts 85°
2026-04-23 20:52 -13.44858 -72.82820 20850 ft 338 kts 86°
2026-04-23 20:52 -13.44709 -72.80397 20781 ft 341 kts 86°
2026-04-23 20:53 -13.44566 -72.77965 20710 ft 341 kts 86°
2026-04-23 20:53 -13.44426 -72.75569 20798 ft 340 kts 86°
2026-04-23 20:53 -13.44283 -72.73128 20999 ft 344 kts 86°
2026-04-23 20:53 -13.44137 -72.70681 21067 ft 343 kts 86°
2026-04-23 20:54 -13.43987 -72.68230 21081 ft 344 kts 86°
2026-04-23 20:54 -13.43837 -72.65775 20960 ft 342 kts 86°
2026-04-23 20:54 -13.43689 -72.63344 20717 ft 341 kts 86°
2026-04-23 20:54 -13.43543 -72.60912 20480 ft 340 kts 86°
2026-04-23 20:55 -13.43397 -72.58487 20248 ft 339 kts 86°
2026-04-23 20:55 -13.43251 -72.56102 20097 ft 338 kts 86°
2026-04-23 20:55 -13.43106 -72.53696 20081 ft 337 kts 86°
2026-04-23 20:55 -13.42960 -72.51293 20069 ft 338 kts 86°
2026-04-23 20:56 -13.42816 -72.48886 20072 ft 337 kts 86°
2026-04-23 20:56 -13.42669 -72.46482 20070 ft 337 kts 86°
2026-04-23 20:56 -13.42522 -72.44077 20075 ft 338 kts 86°
2026-04-23 20:56 -13.42423 -72.42472 20076 ft 338 kts 86°
2026-04-23 20:57 -13.42226 -72.39250 20065 ft 338 kts 86°
2026-04-23 20:57 -13.42127 -72.37648 20070 ft 340 kts 86°
2026-04-23 20:57 -13.41928 -72.34437 20068 ft 340 kts 86°
2026-04-23 20:57 -13.41779 -72.32011 20061 ft 340 kts 86°
2026-04-23 20:58 -13.41788 -72.30376 20064 ft 339 kts 97°
2026-04-23 20:58 -13.42378 -72.28069 20065 ft 339 kts 110°
2026-04-23 20:58 -13.43312 -72.25852 19850 ft 337 kts 114°
2026-04-23 20:58 -13.44288 -72.23711 19642 ft 324 kts 114°
2026-04-23 20:59 -13.45163 -72.21645 19409 ft 309 kts 111°
2026-04-23 20:59 -13.45928 -72.19576 19032 ft 310 kts 108°
2026-04-23 20:59 -13.46615 -72.17477 18835 ft 311 kts 106°
2026-04-23 20:59 -13.47255 -72.15355 18496 ft 312 kts 105°
2026-04-23 21:00 -13.47865 -72.13236 18079 ft 305 kts 105°
2026-04-23 21:00 -13.48452 -72.11166 17681 ft 298 kts 104°
2026-04-23 21:00 -13.49019 -72.09175 17240 ft 290 kts 105°
2026-04-23 21:00 -13.49753 -72.07279 16580 ft 283 kts 116°
2026-04-23 21:01 -13.50893 -72.05639 15964 ft 280 kts 133°
2026-04-23 21:01 -13.52100 -72.04157 15742 ft 262 kts 118°
2026-04-23 21:01 -13.52915 -72.02490 15710 ft 257 kts 111°
2026-04-23 21:01 -13.53567 -72.00798 15789 ft 253 kts 108°
2026-04-23 21:02 -13.54238 -71.99121 16035 ft 254 kts 112°
2026-04-23 21:02 -13.55001 -71.97465 16301 ft 260 kts 116°
2026-04-23 21:02 -13.55916 -71.95841 16486 ft 264 kts 122°
2026-04-23 21:02 -13.56972 -71.94306 16565 ft 258 kts 125°
2026-04-23 21:03 -13.58040 -71.92869 16564 ft 246 kts 125°
2026-04-23 21:03 -13.59039 -71.91512 16567 ft 239 kts 124°
2026-04-23 21:03 -13.60023 -71.90139 16558 ft 238 kts 124°
2026-04-23 21:03 -13.60923 -71.88720 16431 ft 237 kts 118°
2026-04-23 21:04 -13.61688 -71.87230 16252 ft 234 kts 113°
2026-04-23 21:04 -13.62306 -71.85680 16156 ft 235 kts 109°
2026-04-23 21:04 -13.63000 -71.84151 15930 ft 238 kts 118°
2026-04-23 21:04 -13.63890 -71.82698 15629 ft 241 kts 121°
2026-04-23 21:05 -13.64782 -71.81211 15233 ft 247 kts 118°
2026-04-23 21:05 -13.65480 -71.79614 14848 ft 251 kts 105°
2026-04-23 21:05 -13.65787 -71.77838 14414 ft 254 kts 88°
2026-04-23 21:05 -13.65545 -71.76035 14031 ft 257 kts 69°
2026-04-23 21:06 -13.64670 -71.74489 13948 ft 246 kts 44°
2026-04-23 21:06 -13.63269 -71.73517 13761 ft 244 kts 18°
2026-04-23 21:06 -13.61628 -71.73282 13729 ft 233 kts 353°
2026-04-23 21:06 -13.60053 -71.73478 13647 ft 226 kts 350°
2026-04-23 21:07 -13.58707 -71.74163 13666 ft 223 kts 309°
2026-04-23 21:07 -13.58128 -71.75631 13521 ft 222 kts 277°
2026-04-23 21:07 -13.58049 -71.77134 13425 ft 200 kts 277°
2026-04-23 21:07 -13.57740 -71.78464 13551 ft 186 kts 290°
2026-04-23 21:08 -13.57298 -71.79691 13545 ft 181 kts 293°
2026-04-23 21:08 -13.56804 -71.80888 13125 ft 182 kts 294°
2026-04-23 21:08 -13.56333 -71.82095 12593 ft 183 kts 293°
2026-04-23 21:08 -13.55853 -71.83351 12400 ft 201 kts 297°
2026-04-23 21:09 -13.55184 -71.84680 12196 ft 218 kts 299°
2026-04-23 21:09 -13.54613 -71.86020 12048 ft 197 kts 292°
2026-04-23 21:09 -13.54302 -71.87334 11698 ft 184 kts 282°
2026-04-23 21:09 -13.54130 -71.88593 11479 ft 175 kts 277°
2026-04-23 21:10 -13.54015 -71.89826 11239 ft 172 kts 277°
2026-04-23 21:10 -13.53880 -71.91042 10980 ft 172 kts 279°
2026-04-23 21:10 -13.53744 -71.92256 10773 ft 170 kts 281°
2026-04-23 21:10 -13.53620 -71.93399 10774 ft 145 kts 278°
2026-04-23 21:11 -13.53544 -71.94172 10814 ft 63 kts 276°
2026-04-23 21:11 -13.53543 -71.94336 10815 ft 9 kts 218°
2026-04-23 21:11 -13.53567 -71.94341 10814 ft 5 kts 186°
2026-04-23 21:11 -13.53614 -71.94346 10815 ft 8 kts 185°
2026-04-23 21:12 -13.53637 -71.94349 10816 ft 1 kts 194°
2026-04-23 21:12 -13.53664 -71.94382 10817 ft 12 kts 249°
2026-04-23 21:12 -13.53674 -71.94444 10817 ft 5 kts 215°
2026-04-23 21:12 -13.53711 -71.94428 10817 ft 3 kts 146°
2026-04-23 21:13 -13.53734 -71.94413 10817 ft 2 kts 146°
2026-04-23 21:13 -13.53738 -71.94410 10817 ft 0 kts 146°